Terminal Aerodrome Forecast
Issued by NWS Sioux Falls, SD

Home | Current Version | Previous Version | Graphics & Text | Print | Product List | Glossary Off
Versions: 1 2 3 4 5 6 7 8 9 10 11 12 13 14 15 16 17 18 19 20 21 22 23 24 25 26 27 28 29

000
FTUS43 KFSD 311120
TAFSUX
TAF
KSUX 311120Z 3112/0112 13008KT 2SM BR SCT003
      TEMPO 3112/3113 1/2SM FG BKN002
     FM311400 16009KT 5SM BR SCT002
     FM311500 18011KT P6SM FEW004
     FM311700 18013G19KT P6SM FEW200
     FM010000 15006KT P6SM SCT200
     FM010800 12004KT P6SM FEW150 BKN200
      AMD NOT SKED=

USA.gov is the U.S. government's official web portal to all federal, state and local government web resources and services.